This is the latest recevied weather packets stored in our database for station/object WC4PEM-7. If no packets are shown the sender has not sent any weather packets the latest 10 day(s).
| Time | Temp. | Humidity | Pressure | Rain* | Wind** | Luminosity | Snow |
|---|---|---|---|---|---|---|---|
| 1778013211 | 30° C | 48% | 1013.8 hPa | 0 mm | - | - | - |
| 1778012911 | 30.56° C | 47% | 1013.7 hPa | 0 mm | - | - | - |
| 1778012686 | 30.56° C | 46% | 1013.8 hPa | 0 mm | - | - | - |
| 1778012611 | 30.56° C | 46% | 1013.8 hPa | 0 mm | - | - | - |
| 1778012311 | 30° C | 47% | 1013.8 hPa | 0 mm | - | - | - |
| 1778012121 | 29.44° C | 48% | 1013.9 hPa | 0 mm | - | - | - |
| 1778012011 | 29.44° C | 48% | 1013.9 hPa | 0 mm | - | - | - |
| 1778011711 | 29.44° C | 48% | 1014 hPa | 0 mm | - | - | - |
| 1778011412 | 29.44° C | 52% | 1014 hPa | 0 mm | - | - | - |
| 1778011112 | 29.44° C | 49% | 1014.1 hPa | 0 mm | - | - | - |
| 1778010812 | 29.44° C | 48% | 1014.1 hPa | 0 mm | - | - | - |
| 1778010512 | 30° C | 53% | 1014 hPa | 0 mm | - | - | - |
| 1778010212 | 29.44° C | 51% | 1013.9 hPa | 0 mm | - | - | - |
| 1778010011 | 30° C | 50% | 1013.8 hPa | 0 mm | - | - | - |
| 1778009912 | 30° C | 50% | 1013.8 hPa | 0 mm | - | - | - |
| 1778009612 | 30° C | 50% | 1014.1 hPa | 0 mm | - | - | - |
| 1778009402 | 29.44° C | 52% | 1014.2 hPa | 0 mm | - | - | - |
| 1778009312 | 29.44° C | 52% | 1014.2 hPa | 0 mm | - | - | - |
| 1778009101 | 29.44° C | 50% | 1014.5 hPa | 0 mm | - | - | - |
| 1778009012 | 29.44° C | 49% | 1014.3 hPa | 0 mm | - | - | - |
| 1778008712 | 29.44° C | 52% | 1014.4 hPa | 0 mm | - | - | - |
| 1778008502 | 29.44° C | 50% | 1014.5 hPa | 0 mm | - | - | - |
| 1778008412 | 29.44° C | 50% | 1014.5 hPa | 0 mm | - | - | - |
| 1778008112 | 29.44° C | 49% | 1014.6 hPa | 0 mm | - | - | - |
| 1778007812 | 29.44° C | 52% | 1014.6 hPa | 0 mm | - | - | - |
* Rain latest hour (hover to see other rain measurements)
** Current wind speed in m/s (hover to see current wind gust speed)